CDG4839 ZSQD-ZUCK

Flight info

Callsign CDG4839
Flight time 2h 20m
Altitude 34100
Route WFG W103 SUNOK W59 WXI W4 LIMGI W152 TAREX W278 AVDIG W666 VINEX
Aircraft B738/M-SDE2E3FGHIRWXY/LB1

Departure

Time 2026-04-24 11:30
Airport Qingdao Jiaodong International Airport (ZSQD)

Arrival

Time 2026-04-24 13:50
Airport Chongqing Jiangbei International Airport (ZUCK)
Time Latitude Longitude Altitude Speed Heading
2026-04-24 11:04 36.36513 120.09026 31 ft 0 kts 132°
2026-04-24 11:19 36.36515 120.09023 31 ft 2 kts 133°
2026-04-24 11:20 36.36525 120.09010 31 ft 0 kts 132°
2026-04-24 11:20 36.36532 120.09000 31 ft 2 kts 115°
2026-04-24 11:20 36.36535 120.08981 30 ft 2 kts 91°
2026-04-24 11:20 36.36533 120.08963 30 ft 2 kts 66°
2026-04-24 11:21 36.36526 120.08948 31 ft 0 kts 45°
2026-04-24 11:21 36.36521 120.08943 31 ft 1 kts 40°
2026-04-24 11:21 36.36520 120.08942 31 ft 0 kts 41°
2026-04-24 11:23 36.36538 120.08962 30 ft 7 kts 43°
2026-04-24 11:23 36.36598 120.08984 29 ft 9 kts 356°
2026-04-24 11:23 36.36657 120.09026 28 ft 10 kts 42°
2026-04-24 11:23 36.36714 120.09090 28 ft 11 kts 42°
2026-04-24 11:24 36.36762 120.09157 28 ft 9 kts 65°
2026-04-24 11:24 36.36784 120.09236 28 ft 10 kts 72°
2026-04-24 11:24 36.36809 120.09338 28 ft 13 kts 72°
2026-04-24 11:24 36.36837 120.09446 28 ft 12 kts 72°
2026-04-24 11:25 36.36863 120.09542 28 ft 9 kts 71°
2026-04-24 11:25 36.36912 120.09574 28 ft 8 kts 343°
2026-04-24 11:25 36.36975 120.09550 28 ft 10 kts 342°
2026-04-24 11:25 36.37059 120.09516 28 ft 14 kts 342°
2026-04-24 11:26 36.37165 120.09474 28 ft 17 kts 342°
2026-04-24 11:26 36.37291 120.09425 28 ft 20 kts 342°
2026-04-24 11:26 36.37422 120.09373 28 ft 19 kts 342°
2026-04-24 11:26 36.37552 120.09322 28 ft 20 kts 342°
2026-04-24 11:27 36.37693 120.09267 28 ft 21 kts 342°
2026-04-24 11:27 36.37836 120.09211 28 ft 20 kts 342°
2026-04-24 11:27 36.37955 120.09164 28 ft 10 kts 342°
2026-04-24 11:27 36.38015 120.09179 27 ft 9 kts 54°
2026-04-24 11:28 36.38039 120.09260 25 ft 10 kts 72°
2026-04-24 11:28 36.38054 120.09345 25 ft 9 kts 109°
2026-04-24 11:28 36.38004 120.09367 25 ft 1 kts 162°
2026-04-24 11:29 36.37961 120.09384 25 ft 27 kts 162°
2026-04-24 11:29 36.37554 120.09545 28 ft 94 kts 162°
2026-04-24 11:29 36.36731 120.09869 32 ft 150 kts 162°
2026-04-24 11:29 36.35673 120.10276 513 ft 159 kts 163°
2026-04-24 11:30 36.34634 120.10680 1199 ft 161 kts 164°
2026-04-24 11:30 36.33584 120.11102 1860 ft 157 kts 166°
2026-04-24 11:30 36.32531 120.11517 2209 ft 162 kts 166°
2026-04-24 11:30 36.31450 120.11938 2555 ft 166 kts 166°
2026-04-24 11:31 36.30335 120.12375 2935 ft 168 kts 166°
2026-04-24 11:31 36.29204 120.12817 3313 ft 177 kts 166°
2026-04-24 11:31 36.27972 120.13298 3692 ft 191 kts 165°
2026-04-24 11:31 36.26647 120.13816 4014 ft 209 kts 165°
2026-04-24 11:32 36.25216 120.14375 4428 ft 224 kts 164°
2026-04-24 11:32 36.23687 120.14973 4798 ft 241 kts 164°
2026-04-24 11:32 36.22034 120.15580 5284 ft 252 kts 171°
2026-04-24 11:32 36.20244 120.15495 5688 ft 264 kts 199°
2026-04-24 11:33 36.18648 120.14371 6317 ft 270 kts 221°
2026-04-24 11:33 36.17451 120.12605 6947 ft 275 kts 238°
2026-04-24 11:33 36.16701 120.10422 7606 ft 280 kts 258°
2026-04-24 11:33 36.16732 120.08017 8272 ft 284 kts 281°
2026-04-24 11:34 36.17229 120.05663 8872 ft 288 kts 287°
2026-04-24 11:34 36.17815 120.03280 9555 ft 290 kts 287°
2026-04-24 11:34 36.18380 120.00899 10193 ft 293 kts 287°
2026-04-24 11:34 36.18925 119.98465 10895 ft 295 kts 286°
2026-04-24 11:35 36.19470 119.96021 11551 ft 298 kts 289°
2026-04-24 11:35 36.20294 119.93680 12202 ft 299 kts 306°
2026-04-24 11:35 36.21718 119.91839 12759 ft 302 kts 326°
2026-04-24 11:35 36.23626 119.90647 12855 ft 322 kts 342°
2026-04-24 11:36 36.25845 119.89779 12851 ft 347 kts 344°
2026-04-24 11:36 36.28195 119.88896 12849 ft 355 kts 343°
2026-04-24 11:36 36.30584 119.87983 12844 ft 356 kts 343°
2026-04-24 11:36 36.32959 119.87058 12847 ft 357 kts 343°
2026-04-24 11:37 36.35293 119.85986 12851 ft 358 kts 335°
2026-04-24 11:37 36.37357 119.84336 12846 ft 359 kts 319°
2026-04-24 11:37 36.38961 119.81878 13198 ft 372 kts 300°
2026-04-24 11:37 36.40076 119.79048 14130 ft 368 kts 296°
2026-04-24 11:38 36.41148 119.76158 14800 ft 372 kts 296°
2026-04-24 11:38 36.42224 119.73243 15510 ft 374 kts 296°
2026-04-24 11:38 36.43304 119.70312 16176 ft 377 kts 296°
2026-04-24 11:38 36.44391 119.67358 16841 ft 380 kts 296°
2026-04-24 11:39 36.45488 119.64381 17514 ft 382 kts 296°
2026-04-24 11:39 36.46600 119.61372 18164 ft 385 kts 296°
2026-04-24 11:39 36.47721 119.58337 18784 ft 388 kts 296°
2026-04-24 11:39 36.48860 119.55251 19342 ft 393 kts 296°
2026-04-24 11:40 36.49983 119.52205 19937 ft 396 kts 295°
2026-04-24 11:40 36.51134 119.49080 20497 ft 399 kts 295°
2026-04-24 11:40 36.52293 119.45931 21032 ft 403 kts 295°
2026-04-24 11:40 36.53453 119.42771 21582 ft 406 kts 295°
2026-04-24 11:41 36.54625 119.39576 22103 ft 409 kts 295°
2026-04-24 11:41 36.55810 119.36343 22641 ft 412 kts 295°
2026-04-24 11:41 36.57002 119.33084 23159 ft 415 kts 294°
2026-04-24 11:41 36.58196 119.29818 23703 ft 417 kts 294°
2026-04-24 11:42 36.59394 119.26537 24214 ft 420 kts 294°
2026-04-24 11:42 36.60607 119.23209 24715 ft 423 kts 294°
2026-04-24 11:42 36.61831 119.19849 25185 ft 427 kts 294°
2026-04-24 11:42 36.63021 119.16475 25635 ft 430 kts 291°
2026-04-24 11:43 36.64050 119.12968 26107 ft 432 kts 287°
2026-04-24 11:43 36.64816 119.09380 26550 ft 435 kts 282°
2026-04-24 11:43 36.65371 119.05683 26986 ft 438 kts 278°
2026-04-24 11:43 36.65811 119.01894 27425 ft 441 kts 277°
2026-04-24 11:44 36.66187 118.98145 27883 ft 443 kts 276°
2026-04-24 11:44 36.66546 118.94327 28295 ft 445 kts 276°
2026-04-24 11:44 36.66901 118.90474 28762 ft 447 kts 276°
2026-04-24 11:44 36.67254 118.86661 29191 ft 449 kts 276°
2026-04-24 11:45 36.67613 118.82822 29765 ft 447 kts 276°
2026-04-24 11:45 36.67977 118.78981 30401 ft 443 kts 276°
2026-04-24 11:45 36.68337 118.75208 30901 ft 442 kts 276°
2026-04-24 11:45 36.68701 118.71413 31397 ft 440 kts 276°
2026-04-24 11:46 36.69064 118.67632 31866 ft 439 kts 276°
2026-04-24 11:46 36.69423 118.63903 32305 ft 438 kts 276°
2026-04-24 11:46 36.69783 118.60169 32828 ft 434 kts 276°
2026-04-24 11:46 36.70139 118.56456 33245 ft 433 kts 276°
2026-04-24 11:47 36.70499 118.52703 33665 ft 432 kts 276°
2026-04-24 11:47 36.70847 118.49058 34067 ft 430 kts 276°
2026-04-24 11:47 36.71553 118.41607 34124 ft 431 kts 276°
2026-04-24 11:48 36.72251 118.34214 34116 ft 431 kts 275°
2026-04-24 11:48 36.72948 118.26777 34109 ft 432 kts 275°
2026-04-24 11:49 36.73639 118.19394 34105 ft 431 kts 276°
2026-04-24 11:49 36.74386 118.11932 34103 ft 433 kts 276°
2026-04-24 11:50 36.75146 118.04514 34108 ft 432 kts 276°
2026-04-24 11:50 36.75899 117.97098 34093 ft 431 kts 276°
2026-04-24 11:51 36.76640 117.89726 34117 ft 430 kts 276°
2026-04-24 11:51 36.77376 117.82317 34111 ft 430 kts 276°
2026-04-24 11:52 36.78104 117.74925 34125 ft 431 kts 276°
2026-04-24 11:52 36.78828 117.67522 34106 ft 430 kts 276°
2026-04-24 11:53 36.79544 117.60157 34115 ft 430 kts 276°
2026-04-24 11:53 36.80260 117.52744 34102 ft 430 kts 276°
2026-04-24 11:54 36.80968 117.45363 34097 ft 430 kts 276°
2026-04-24 11:54 36.81670 117.37991 34100 ft 428 kts 276°
2026-04-24 11:55 36.82366 117.30638 34112 ft 428 kts 276°
2026-04-24 11:55 36.83041 117.23261 34103 ft 427 kts 275°
2026-04-24 11:56 36.83202 117.15918 34089 ft 428 kts 269°
2026-04-24 11:56 36.82977 117.08514 34099 ft 427 kts 267°
2026-04-24 11:57 36.82697 117.01124 34098 ft 428 kts 267°
2026-04-24 11:57 36.82437 116.93734 34095 ft 427 kts 268°
2026-04-24 11:58 36.82196 116.86343 34097 ft 428 kts 268°
2026-04-24 11:58 36.81963 116.78934 34087 ft 427 kts 268°
2026-04-24 11:59 36.81729 116.71533 34099 ft 427 kts 268°
2026-04-24 11:59 36.81493 116.64154 34085 ft 426 kts 268°
2026-04-24 12:00 36.81254 116.56828 34091 ft 426 kts 268°
2026-04-24 12:00 36.81008 116.49418 34083 ft 426 kts 268°
2026-04-24 12:01 36.80760 116.42057 34073 ft 426 kts 268°
2026-04-24 12:01 36.80502 116.34689 34083 ft 427 kts 267°
2026-04-24 12:02 36.79717 116.27354 34067 ft 429 kts 257°
2026-04-24 12:02 36.77747 116.20311 34075 ft 429 kts 249°
2026-04-24 12:03 36.75372 116.13514 34093 ft 430 kts 247°
2026-04-24 12:03 36.72937 116.06740 34094 ft 430 kts 248°
2026-04-24 12:04 36.70517 115.99940 34091 ft 429 kts 248°
2026-04-24 12:04 36.68126 115.93154 34092 ft 430 kts 248°
2026-04-24 12:05 36.65729 115.86327 34090 ft 429 kts 248°
2026-04-24 12:05 36.63338 115.79516 34094 ft 429 kts 248°
2026-04-24 12:06 36.60954 115.72732 34082 ft 430 kts 248°
2026-04-24 12:06 36.58547 115.65895 34088 ft 431 kts 249°
2026-04-24 12:07 36.56160 115.59129 34084 ft 431 kts 249°
2026-04-24 12:07 36.53746 115.52301 34084 ft 431 kts 249°
2026-04-24 12:08 36.51333 115.45496 34088 ft 431 kts 249°
2026-04-24 12:08 36.48931 115.38735 34082 ft 431 kts 249°
2026-04-24 12:09 36.46506 115.31927 34085 ft 432 kts 248°
2026-04-24 12:09 36.44072 115.25101 34087 ft 432 kts 249°
2026-04-24 12:10 36.41958 115.18198 34082 ft 430 kts 255°
2026-04-24 12:11 36.39614 115.07487 34083 ft 429 kts 258°
2026-04-24 12:11 36.38135 115.00343 34077 ft 428 kts 258°
2026-04-24 12:12 36.36558 114.93253 34074 ft 429 kts 253°
2026-04-24 12:12 36.34081 114.86493 34072 ft 432 kts 244°
2026-04-24 12:13 36.31057 114.80069 34067 ft 434 kts 242°
2026-04-24 12:13 36.27930 114.73682 34063 ft 432 kts 242°
2026-04-24 12:14 36.24802 114.67355 34061 ft 433 kts 242°
2026-04-24 12:14 36.21670 114.61043 34062 ft 433 kts 242°
2026-04-24 12:15 36.18549 114.54727 34052 ft 431 kts 242°
2026-04-24 12:15 36.15429 114.48395 34057 ft 431 kts 242°
2026-04-24 12:16 36.12321 114.42088 34058 ft 430 kts 242°
2026-04-24 12:16 36.09225 114.35811 34059 ft 429 kts 243°
2026-04-24 12:17 36.06117 114.29521 34060 ft 430 kts 242°
2026-04-24 12:17 36.03004 114.23229 34064 ft 430 kts 242°
2026-04-24 12:18 35.99887 114.16943 34066 ft 428 kts 242°
2026-04-24 12:18 35.96782 114.10686 34069 ft 428 kts 242°
2026-04-24 12:19 35.93693 114.04481 34075 ft 426 kts 242°
2026-04-24 12:19 35.90590 113.98252 34082 ft 427 kts 242°
2026-04-24 12:20 35.87482 113.92025 34101 ft 428 kts 242°
2026-04-24 12:20 35.84356 113.85777 34101 ft 426 kts 242°
2026-04-24 12:21 35.81243 113.79562 34105 ft 429 kts 242°
2026-04-24 12:21 35.78131 113.73365 34106 ft 428 kts 242°
2026-04-24 12:22 35.74995 113.67129 34126 ft 429 kts 242°
2026-04-24 12:22 35.71852 113.60892 34139 ft 428 kts 242°
2026-04-24 12:23 35.68719 113.54688 34160 ft 428 kts 242°
2026-04-24 12:23 35.65590 113.48501 34174 ft 428 kts 242°
2026-04-24 12:24 35.62448 113.42300 34174 ft 429 kts 242°
2026-04-24 12:24 35.59322 113.36095 34167 ft 429 kts 242°
2026-04-24 12:25 35.56243 113.29846 34163 ft 428 kts 242°
2026-04-24 12:25 35.53172 113.23588 34164 ft 429 kts 242°
2026-04-24 12:26 35.50083 113.17310 34150 ft 428 kts 242°
2026-04-24 12:26 35.47013 113.11097 34136 ft 429 kts 242°
2026-04-24 12:27 35.43914 113.04847 34125 ft 429 kts 242°
2026-04-24 12:27 35.40796 112.98571 34124 ft 430 kts 242°
2026-04-24 12:28 35.37698 112.92347 34116 ft 429 kts 242°
2026-04-24 12:28 35.34595 112.86122 34117 ft 427 kts 241°
2026-04-24 12:29 35.31491 112.79906 34130 ft 428 kts 242°
2026-04-24 12:29 35.28422 112.73776 34131 ft 426 kts 241°
2026-04-24 12:30 35.25330 112.67611 34122 ft 424 kts 241°
2026-04-24 12:30 35.22253 112.61484 34132 ft 424 kts 242°
2026-04-24 12:31 35.19166 112.55334 34113 ft 424 kts 242°
2026-04-24 12:31 35.16122 112.49202 34105 ft 423 kts 242°
2026-04-24 12:32 35.13079 112.43054 34097 ft 423 kts 242°
2026-04-24 12:32 35.10035 112.36915 34091 ft 423 kts 242°
2026-04-24 12:33 35.07007 112.30826 34077 ft 420 kts 241°
2026-04-24 12:33 35.03981 112.24759 34078 ft 420 kts 241°
2026-04-24 12:34 35.00946 112.18683 34075 ft 420 kts 240°
2026-04-24 12:34 34.97899 112.12597 34078 ft 418 kts 240°
2026-04-24 12:35 34.94881 112.06583 34088 ft 420 kts 241°
2026-04-24 12:35 34.91835 112.00519 34091 ft 417 kts 240°
2026-04-24 12:36 34.88807 111.94505 34107 ft 419 kts 240°
2026-04-24 12:36 34.85793 111.88505 34117 ft 416 kts 241°
2026-04-24 12:37 34.82787 111.82451 34107 ft 419 kts 241°
2026-04-24 12:37 34.79797 111.76430 34101 ft 419 kts 241°
2026-04-24 12:38 34.76766 111.70341 34103 ft 421 kts 241°
2026-04-24 12:38 34.73736 111.64271 34108 ft 422 kts 241°
2026-04-24 12:39 34.67617 111.52071 34117 ft 425 kts 241°
2026-04-24 12:40 34.64560 111.45986 34125 ft 424 kts 241°
2026-04-24 12:40 34.61492 111.39898 34135 ft 423 kts 241°
2026-04-24 12:41 34.58421 111.33813 34149 ft 423 kts 240°
2026-04-24 12:41 34.55362 111.27753 34168 ft 425 kts 240°
2026-04-24 12:42 34.52282 111.21667 34176 ft 423 kts 240°
2026-04-24 12:42 34.49205 111.15591 34182 ft 426 kts 240°
2026-04-24 12:43 34.46096 111.09466 34167 ft 428 kts 240°
2026-04-24 12:43 34.42980 111.03342 34153 ft 427 kts 240°
2026-04-24 12:44 34.39878 110.97184 34153 ft 428 kts 241°
2026-04-24 12:44 34.36805 110.91024 34154 ft 427 kts 241°
2026-04-24 12:45 34.33736 110.84881 34151 ft 427 kts 242°
2026-04-24 12:45 34.30669 110.78760 34147 ft 426 kts 242°
2026-04-24 12:46 34.27596 110.72640 34158 ft 428 kts 242°
2026-04-24 12:46 34.24522 110.66537 34171 ft 427 kts 242°
2026-04-24 12:47 34.21430 110.60405 34171 ft 429 kts 242°
2026-04-24 12:47 34.18344 110.54291 34173 ft 427 kts 242°
2026-04-24 12:48 34.15258 110.48192 34161 ft 427 kts 243°
2026-04-24 12:48 34.12154 110.42046 34166 ft 431 kts 243°
2026-04-24 12:49 34.09058 110.35880 34152 ft 428 kts 243°
2026-04-24 12:49 34.05960 110.29712 34164 ft 431 kts 243°
2026-04-24 12:50 34.02861 110.23563 34182 ft 429 kts 243°
2026-04-24 12:50 33.99782 110.17461 34167 ft 429 kts 243°
2026-04-24 12:51 33.96680 110.11318 34159 ft 430 kts 243°
2026-04-24 12:51 33.93558 110.05155 34166 ft 429 kts 243°
2026-04-24 12:52 33.90467 109.99058 34166 ft 430 kts 243°
2026-04-24 12:52 33.87745 109.92682 34181 ft 425 kts 252°
2026-04-24 12:53 33.85899 109.85983 34168 ft 422 kts 258°
2026-04-24 12:53 33.84403 109.79192 34173 ft 422 kts 260°
2026-04-24 12:54 33.82957 109.72373 34181 ft 423 kts 260°
2026-04-24 12:54 33.81478 109.65508 34197 ft 424 kts 260°
2026-04-24 12:55 33.79604 109.58785 34209 ft 429 kts 249°
2026-04-24 12:55 33.78024 109.55770 34220 ft 436 kts 238°
2026-04-24 12:55 33.75932 109.53055 34237 ft 447 kts 228°
2026-04-24 12:56 33.70841 109.48582 34238 ft 457 kts 218°
2026-04-24 12:56 33.65364 109.44649 34230 ft 460 kts 216°
2026-04-24 12:57 33.59826 109.40833 34223 ft 461 kts 216°
2026-04-24 12:57 33.54310 109.37022 34214 ft 460 kts 217°
2026-04-24 12:58 33.48778 109.33167 34219 ft 461 kts 216°
2026-04-24 12:58 33.43230 109.29287 34236 ft 461 kts 216°
2026-04-24 12:59 33.37683 109.25397 34255 ft 463 kts 216°
2026-04-24 12:59 33.32165 109.21536 34251 ft 460 kts 217°
2026-04-24 13:00 33.26632 109.17666 34255 ft 463 kts 217°
2026-04-24 13:00 33.21086 109.13792 34234 ft 462 kts 217°
2026-04-24 13:01 33.15526 109.09914 34218 ft 462 kts 217°
2026-04-24 13:01 33.09958 109.06035 34214 ft 464 kts 217°
2026-04-24 13:02 33.04390 109.02162 34248 ft 463 kts 217°
2026-04-24 13:02 32.98842 108.98311 34243 ft 464 kts 217°
2026-04-24 13:03 32.93301 108.94469 34176 ft 460 kts 217°
2026-04-24 13:03 32.87697 108.90588 34194 ft 464 kts 217°
2026-04-24 13:04 32.82129 108.86739 34190 ft 462 kts 217°
2026-04-24 13:04 32.76594 108.82918 34184 ft 462 kts 217°
2026-04-24 13:05 32.71035 108.79090 34195 ft 460 kts 218°
2026-04-24 13:05 32.65482 108.75269 34199 ft 459 kts 218°
2026-04-24 13:06 32.59973 108.71484 34210 ft 459 kts 218°
2026-04-24 13:06 32.54436 108.67679 34220 ft 459 kts 218°
2026-04-24 13:07 32.48934 108.63899 34235 ft 457 kts 219°
2026-04-24 13:07 32.44081 108.59283 34248 ft 440 kts 238°
2026-04-24 13:07 32.42297 108.56389 34260 ft 427 kts 248°
2026-04-24 13:08 32.40962 108.53329 34260 ft 419 kts 254°
2026-04-24 13:08 32.39080 108.46875 34270 ft 414 kts 262°
2026-04-24 13:09 32.36974 108.37064 34264 ft 409 kts 264°
2026-04-24 13:09 32.35585 108.30518 34252 ft 413 kts 263°
2026-04-24 13:10 32.34143 108.23902 34236 ft 410 kts 262°
2026-04-24 13:10 32.32521 108.17360 34239 ft 415 kts 261°
2026-04-24 13:11 32.30811 108.10830 34235 ft 414 kts 261°
2026-04-24 13:11 32.29125 108.04338 34231 ft 414 kts 261°
2026-04-24 13:12 32.27440 107.97848 34235 ft 412 kts 261°
2026-04-24 13:12 32.25766 107.91378 34224 ft 413 kts 261°
2026-04-24 13:13 32.24072 107.84874 34226 ft 414 kts 261°
2026-04-24 13:13 32.22395 107.78403 34213 ft 414 kts 262°
2026-04-24 13:14 32.20674 107.71878 34216 ft 417 kts 259°
2026-04-24 13:14 32.18073 107.65713 34222 ft 434 kts 242°
2026-04-24 13:15 32.15987 107.63009 34229 ft 451 kts 232°
2026-04-24 13:15 32.13624 107.60616 34226 ft 457 kts 228°
2026-04-24 13:15 32.08535 107.56048 34232 ft 456 kts 226°
2026-04-24 13:16 32.03413 107.51641 34224 ft 455 kts 226°
2026-04-24 13:16 31.98293 107.47185 34204 ft 458 kts 226°
2026-04-24 13:17 31.93182 107.42707 34205 ft 459 kts 226°
2026-04-24 13:17 31.88072 107.38216 34202 ft 456 kts 226°
2026-04-24 13:18 31.83005 107.33768 34197 ft 457 kts 226°
2026-04-24 13:18 31.77733 107.29504 34182 ft 464 kts 219°
2026-04-24 13:19 31.71866 107.26063 34169 ft 473 kts 212°
2026-04-24 13:19 31.65842 107.23041 34167 ft 473 kts 211°
2026-04-24 13:20 31.59738 107.20029 34177 ft 476 kts 211°
2026-04-24 13:20 31.53661 107.16977 34180 ft 473 kts 212°
2026-04-24 13:21 31.47666 107.13929 34180 ft 470 kts 212°
2026-04-24 13:21 31.41654 107.10850 34179 ft 472 kts 212°
2026-04-24 13:22 31.35631 107.07759 34170 ft 472 kts 212°
2026-04-24 13:22 31.29649 107.04695 34173 ft 468 kts 212°
2026-04-24 13:23 31.23675 107.01640 34173 ft 469 kts 212°
2026-04-24 13:23 31.17716 106.98592 34169 ft 469 kts 212°
2026-04-24 13:24 31.11737 106.95538 34158 ft 467 kts 212°
2026-04-24 13:24 31.05760 106.92491 34152 ft 468 kts 212°
2026-04-24 13:25 30.99801 106.89460 34144 ft 467 kts 212°
2026-04-24 13:25 30.93844 106.86433 34147 ft 467 kts 212°
2026-04-24 13:26 30.87911 106.83424 34131 ft 466 kts 212°
2026-04-24 13:26 30.81968 106.80410 34127 ft 465 kts 212°
2026-04-24 13:27 30.76039 106.77411 34023 ft 464 kts 212°
2026-04-24 13:27 30.73073 106.75915 33610 ft 460 kts 213°
2026-04-24 13:27 30.70145 106.74441 33044 ft 458 kts 212°
2026-04-24 13:28 30.67216 106.72963 32341 ft 459 kts 212°
2026-04-24 13:28 30.64304 106.71491 31579 ft 461 kts 212°
2026-04-24 13:28 30.61367 106.70008 31035 ft 457 kts 212°
2026-04-24 13:28 30.58456 106.68612 30475 ft 457 kts 210°
2026-04-24 13:29 30.55458 106.67353 29900 ft 457 kts 207°
2026-04-24 13:29 30.52431 106.66187 29294 ft 456 kts 206°
2026-04-24 13:29 30.49431 106.65076 28702 ft 453 kts 206°
2026-04-24 13:29 30.46445 106.63980 28126 ft 451 kts 206°
2026-04-24 13:30 30.43462 106.62878 27537 ft 448 kts 206°
2026-04-24 13:30 30.40481 106.61784 26958 ft 446 kts 205°
2026-04-24 13:30 30.37534 106.60753 26373 ft 445 kts 204°
2026-04-24 13:30 30.34548 106.59739 25783 ft 443 kts 204°
2026-04-24 13:31 30.31632 106.58757 25209 ft 440 kts 203°
2026-04-24 13:31 30.28691 106.57765 24628 ft 438 kts 203°
2026-04-24 13:31 30.25762 106.56774 24038 ft 436 kts 203°
2026-04-24 13:31 30.22875 106.55791 23533 ft 431 kts 204°
2026-04-24 13:32 30.20009 106.54812 23065 ft 426 kts 204°
2026-04-24 13:32 30.17183 106.53843 22536 ft 423 kts 204°
2026-04-24 13:32 30.14322 106.52859 21973 ft 421 kts 203°
2026-04-24 13:32 30.11519 106.51894 21419 ft 419 kts 204°
2026-04-24 13:33 30.08770 106.50950 21143 ft 410 kts 204°
2026-04-24 13:33 30.06049 106.50017 20830 ft 402 kts 204°
2026-04-24 13:33 30.03409 106.49112 20502 ft 395 kts 204°
2026-04-24 13:33 30.00761 106.48199 19938 ft 395 kts 204°
2026-04-24 13:34 29.98130 106.47285 19269 ft 398 kts 203°
2026-04-24 13:34 29.95491 106.46377 18971 ft 390 kts 201°
2026-04-24 13:34 29.92848 106.45991 18862 ft 387 kts 180°
2026-04-24 13:34 29.90256 106.46785 18727 ft 383 kts 153°
2026-04-24 13:35 29.88199 106.48676 18387 ft 375 kts 125°
2026-04-24 13:35 29.87023 106.51261 18005 ft 362 kts 101°
2026-04-24 13:35 29.86544 106.54050 17633 ft 352 kts 91°
2026-04-24 13:35 29.86555 106.56772 17271 ft 334 kts 71°
2026-04-24 13:36 29.87346 106.59223 16882 ft 316 kts 52°
2026-04-24 13:36 29.88623 106.61173 16498 ft 303 kts 39°
2026-04-24 13:36 29.90156 106.62809 16120 ft 295 kts 31°
2026-04-24 13:36 29.91876 106.63939 15769 ft 281 kts 13°
2026-04-24 13:37 29.93753 106.64298 15437 ft 271 kts 356°
2026-04-24 13:37 29.95618 106.64098 15104 ft 265 kts 348°
2026-04-24 13:37 29.97375 106.63555 14775 ft 261 kts 336°
2026-04-24 13:37 29.98984 106.62612 14459 ft 257 kts 334°
2026-04-24 13:38 30.00665 106.61974 14133 ft 255 kts 351°
2026-04-24 13:38 30.02451 106.61928 13813 ft 255 kts
2026-04-24 13:38 30.04207 106.62327 13493 ft 255 kts 13°
2026-04-24 13:38 30.05925 106.62910 13182 ft 265 kts 15°
2026-04-24 13:39 30.07706 106.63556 12835 ft 268 kts 15°
2026-04-24 13:39 30.09480 106.64195 12504 ft 266 kts 15°
2026-04-24 13:39 30.11260 106.64822 12170 ft 264 kts 15°
2026-04-24 13:39 30.13002 106.65429 11844 ft 263 kts 15°
2026-04-24 13:40 30.14757 106.66040 11551 ft 259 kts 15°
2026-04-24 13:40 30.16449 106.66627 11431 ft 249 kts 15°
2026-04-24 13:40 30.18058 106.67295 11308 ft 241 kts 25°
2026-04-24 13:40 30.19354 106.68464 11289 ft 241 kts 52°
2026-04-24 13:41 30.19869 106.69616 11297 ft 249 kts 71°
2026-04-24 13:41 30.19918 106.72324 11211 ft 261 kts 98°
2026-04-24 13:41 30.19439 106.74355 10874 ft 264 kts 104°
2026-04-24 13:41 30.18816 106.76337 10695 ft 258 kts 113°
2026-04-24 13:42 30.17826 106.78064 10493 ft 260 kts 134°
2026-04-24 13:42 30.16290 106.79089 10342 ft 254 kts 165°
2026-04-24 13:42 30.14533 106.79144 9983 ft 254 kts 192°
2026-04-24 13:42 30.12857 106.78517 9562 ft 257 kts 201°
2026-04-24 13:43 30.11175 106.77787 9173 ft 258 kts 200°
2026-04-24 13:43 30.09472 106.77134 8802 ft 259 kts 198°
2026-04-24 13:43 30.07745 106.76526 8431 ft 258 kts 197°
2026-04-24 13:43 30.06012 106.75932 8067 ft 258 kts 197°
2026-04-24 13:44 30.04298 106.75343 7707 ft 257 kts 197°
2026-04-24 13:44 30.02586 106.74750 7343 ft 257 kts 197°
2026-04-24 13:44 30.00871 106.74154 6983 ft 255 kts 197°
2026-04-24 13:44 29.99162 106.73562 6625 ft 254 kts 197°
2026-04-24 13:45 29.97471 106.72977 6265 ft 252 kts 197°
2026-04-24 13:45 29.95805 106.72400 5919 ft 250 kts 197°
2026-04-24 13:45 29.94142 106.71824 5572 ft 249 kts 197°
2026-04-24 13:45 29.92480 106.71249 5233 ft 247 kts 197°
2026-04-24 13:46 29.90835 106.70679 4892 ft 246 kts 196°
2026-04-24 13:46 29.89254 106.70134 4570 ft 232 kts 196°
2026-04-24 13:46 29.87740 106.69617 4262 ft 218 kts 196°
2026-04-24 13:46 29.86342 106.69135 3981 ft 205 kts 196°
2026-04-24 13:47 29.85010 106.68673 3712 ft 192 kts 196°
2026-04-24 13:47 29.83777 106.68246 3477 ft 179 kts 196°
2026-04-24 13:47 29.82622 106.67847 3241 ft 169 kts 196°
2026-04-24 13:47 29.81513 106.67465 3022 ft 164 kts 196°
2026-04-24 13:48 29.80403 106.67083 2800 ft 164 kts 197°
2026-04-24 13:48 29.79316 106.66705 2582 ft 163 kts 197°
2026-04-24 13:48 29.78229 106.66332 2367 ft 162 kts 197°
2026-04-24 13:48 29.77161 106.65963 2158 ft 161 kts 198°
2026-04-24 13:49 29.76090 106.65607 1958 ft 159 kts 197°
2026-04-24 13:49 29.75026 106.65243 1794 ft 158 kts 198°
2026-04-24 13:49 29.73973 106.64868 1581 ft 159 kts 198°
2026-04-24 13:49 29.72909 106.64507 1377 ft 155 kts 197°
2026-04-24 13:50 29.71973 106.64177 1371 ft 112 kts 197°
2026-04-24 13:50 29.71450 106.63994 1370 ft 56 kts 196°
2026-04-24 13:50 29.71250 106.63927 1370 ft 16 kts 196°
2026-04-24 13:50 29.71138 106.63917 1370 ft 15 kts 173°
2026-04-24 13:51 29.71032 106.63932 1370 ft 15 kts 168°
2026-04-24 13:51 29.70931 106.63955 1370 ft 14 kts 167°
2026-04-24 13:51 29.70834 106.63973 1370 ft 13 kts 179°
2026-04-24 13:51 29.70752 106.63959 1370 ft 9 kts 196°
2026-04-24 13:52 29.70710 106.63955 1370 ft 8 kts 158°
2026-04-24 13:52 29.70678 106.64037 1370 ft 8 kts 107°
2026-04-24 13:52 29.70662 106.64098 1370 ft 7 kts 106°
2026-04-24 13:52 29.70644 106.64171 1370 ft 10 kts 107°
2026-04-24 13:53 29.70622 106.64250 1370 ft 9 kts 107°
2026-04-24 13:53 29.70603 106.64325 1370 ft 9 kts 107°
2026-04-24 13:53 29.70600 106.64394 1370 ft 8 kts 52°
2026-04-24 13:53 29.70653 106.64420 1370 ft 8 kts 15°
2026-04-24 13:54 29.70706 106.64437 1370 ft 8 kts 17°
2026-04-24 13:54 29.70773 106.64461 1370 ft 11 kts 18°
2026-04-24 13:54 29.70854 106.64489 1370 ft 12 kts 17°
2026-04-24 13:54 29.70937 106.64517 1370 ft 12 kts 17°
2026-04-24 13:55 29.71015 106.64544 1370 ft 11 kts 17°
2026-04-24 13:55 29.71104 106.64575 1370 ft 14 kts 17°
2026-04-24 13:55 29.71177 106.64622 1370 ft 11 kts 59°
2026-04-24 13:55 29.71210 106.64703 1370 ft 10 kts 40°
2026-04-24 13:56 29.71273 106.64764 1370 ft 13 kts 40°
2026-04-24 13:56 29.71325 106.64824 1371 ft 7 kts 84°
2026-04-24 13:56 29.71307 106.64877 1371 ft 6 kts 120°
2026-04-24 13:56 29.71292 106.64906 1371 ft 2 kts 120°
2026-04-24 13:57 29.71288 106.64915 1371 ft 0 kts 120°